Location: *
(49.1466°N, 1.6216°E)
Time: 18:13:42
(UTC+00:00)

NOSS 2-3 (E) - Pass Details

Date: 25 September 2023
Orbit: 505 x 1696 km, 63.3° (Epoch: 05 December)

Event Time Altitude Azimuth Distance (km) Brightness Sun altitude
Rises 19:26:15 0° 219° (SW) 2,595 7.0 -17.0°
Reaches altitude 10° 19:28:18 10° 219° (SW) 1,724 6.1 -17.3°
Maximum altitude 19:32:02 87° 135° (SE) 550 3.2 -17.9°
Drops below altitude 10° 19:36:22 10° 43° (NE) 1,992 5.9 -18.5°
Enters shadow 19:36:50 - 43° (NE) 2,187 6.2 -18.6°
